This is the latest recevied weather packets stored in our database for station/object F5ZQC-13. If no packets are shown the sender has not sent any weather packets the latest 1 day(s).
| Time | Temp. | Humidity | Pressure | Rain* | Wind** | Luminosity | Snow |
|---|---|---|---|---|---|---|---|
| 1777970276 | 21.11° C | 36% | 1009.8 hPa | 0 mm | 2.24 m/s, 292° | - | - |
| 1777970032 | 21.11° C | 35% | 1009.9 hPa | 0 mm | 1.34 m/s, 337° | - | - |
| 1777969909 | 21.11° C | 35% | 1009.8 hPa | 0 mm | 1.34 m/s, 337° | - | - |
| 1777969787 | 21.11° C | 35% | 1009.9 hPa | 0 mm | 2.68 m/s, 337° | - | - |
| 1777969420 | 21.11° C | 35% | 1010 hPa | 0 mm | 1.79 m/s, 337° | - | - |
| 1777969298 | 21.11° C | 36% | 1009.9 hPa | 0 mm | 1.79 m/s, 337° | - | - |
| 1777969175 | 21.11° C | 35% | 1009.9 hPa | 0 mm | 2.24 m/s, 315° | - | - |
| 1777969053 | 21.11° C | 35% | 1010 hPa | 0 mm | 2.68 m/s, 337° | - | - |
| 1777968931 | 21.11° C | 36% | 1010 hPa | 0 mm | 2.24 m/s, 292° | - | - |
| 1777968809 | 21.11° C | 36% | 1010 hPa | 0 mm | 1.79 m/s, 292° | - | - |
| 1777968531 | 20.56° C | 39% | 1009.9 hPa | 0 mm | 2.24 m/s, 292° | - | - |
| 1777968145 | 20.56° C | 40% | 1009.9 hPa | 0 mm | 0.45 m/s, 247° | - | - |
| 1777968023 | 20.56° C | 40% | 1009.9 hPa | 0 mm | 0.89 m/s, 337° | - | - |
| 1777967901 | 20.56° C | 40% | 1009.9 hPa | 0 mm | 2.24 m/s, 315° | - | - |
| 1777967689 | 20.56° C | 41% | 1009.9 hPa | 0 mm | 2.24 m/s, 315° | - | - |
| 1777967445 | 20° C | 40% | 1009.9 hPa | 0 mm | 0.89 m/s, 0° | - | - |
| 1777967323 | 20° C | 40% | 1009.9 hPa | 0 mm | 0.89 m/s, 315° | - | - |
| 1777967261 | 20° C | 41% | 1009.9 hPa | 0 mm | 57.22 m/s, 337° | - | - |
| 1777967151 | 20° C | 41% | 1009.9 hPa | 0 mm | 2.24 m/s, 292° | - | - |
| 1777967069 | 20° C | 42% | 1009.9 hPa | 0 mm | 2.68 m/s, 337° | - | - |
| 1777967029 | 20° C | 42% | 1009.9 hPa | 0 mm | 2.68 m/s, 337° | - | - |
| 1777966907 | 20° C | 42% | 1010 hPa | 0 mm | 1.34 m/s, 337° | - | - |
| 1777966785 | 20° C | 43% | 1009.9 hPa | 0 mm | 0.45 m/s, 225° | - | - |
| 1777966723 | 20° C | 43% | 1010.1 hPa | 0 mm | 56.33 m/s, 337° | - | - |
| 1777966540 | 20° C | 43% | 1010 hPa | 0 mm | 2.24 m/s, 292° | - | - |
* Rain since midnight (hover to see other rain measurements)
** Current wind speed in m/s (hover to see current wind gust speed)